This is the latest recevied weather packets stored in our database for station/object OM4MO-10. If no packets are shown the sender has not sent any weather packets the latest 10 day(s).
| Time | Temp. | Humidity | Pressure | Rain* | Wind** | Luminosity | Snow |
|---|---|---|---|---|---|---|---|
| 1788017407 | 21.67° C | 79% | 931.5 hPa | - | - | - | - |
| 1788016511 | 183.33° C | 79% | 754.7 hPa | - | - | - | - |
| 1788015606 | 183.33° C | 79% | 754.7 hPa | - | - | - | - |
| 1788014706 | 183.33° C | 79% | 754.7 hPa | - | - | - | - |
| 1788013806 | 183.33° C | 79% | 754.7 hPa | - | - | - | - |
| 1788012905 | 183.33° C | 79% | 754.7 hPa | - | - | - | - |
| 1788012004 | 182.22° C | 79% | 754.7 hPa | - | - | - | - |
| 1788011104 | 182.22° C | 79% | 754.7 hPa | - | - | - | - |
| 1788010214 | 21.67° C | 79% | 931.5 hPa | - | - | - | - |
| 1788009303 | 183.33° C | 79% | 754.7 hPa | - | - | - | - |
| 1788008403 | 190° C | 79% | 931.5 hPa | - | - | - | - |
| 1788007502 | 21.67° C | 100% | 747.8 hPa | - | - | - | - |
| 1788006602 | 21.67° C | 79% | 931.5 hPa | - | - | - | - |
| 1788005701 | 183.33° C | 79% | 754.7 hPa | - | - | - | - |
| 1788004799 | 183.33° C | 79% | 754.7 hPa | - | - | - | - |
| 1788003898 | 21.67° C | 79% | - | - | - | - | - |
| 1788002997 | 21.67° C | 79% | - | - | - | - | - |
| 1788002096 | 21.67° C | 89% | 754.7 hPa | - | - | - | - |
| 1788001195 | 21.67° C | 100% | 754.7 hPa | - | - | - | - |
| 1788000295 | 21.67° C | 79% | 931.5 hPa | - | - | - | - |
| 1787999394 | 21.67° C | 100% | 754.7 hPa | - | - | - | - |
| 1787998493 | 21.67° C | 100% | 754.7 hPa | - | - | - | - |
| 1787997592 | 21.67° C | 100% | 754.7 hPa | - | - | - | - |
| 1787996691 | 21.67° C | 89% | 754.7 hPa | - | - | - | - |
| 1787995790 | 21.67° C | 89% | 754.7 hPa | - | - | - | - |
* Rain since midnight (hover to see other rain measurements)
** Current wind speed in m/s (hover to see current wind gust speed)